EW3197 Weather Reports


Display with metric or nautical units.
time (UTC)temp
F
wind
direction
speed
MPH
gust
MPH
rain 1hr
in
rain 24hr
in
rain mn
in
humidity
%
barometer
mb
20260503210204 56 272 4.0 18.0 0.00 0.00 0.00 36 1009.2
20260503205204 56 263 4.0 12.0 0.00 0.00 0.00 38 1009.1
20260503204704 56 279 3.0 12.0 0.00 0.00 0.00 39 1009.1
20260503204204 56 271 6.0 20.0 0.00 0.00 0.00 36 1009.3
20260503203704 56 311 6.0 20.0 0.00 0.00 0.00 39 1009.1
20260503203204 56 333 6.0 14.0 0.00 0.00 0.00 36 1009.1
20260503202703 56 263 4.0 14.0 0.00 0.00 0.00 40 1009.2
20260503202204 57 325 3.0 10.0 0.00 0.00 0.00 40 1009.3
20260503201703 56 298 2.0 13.0 0.00 0.00 0.00 41 1009.3
20260503201204 55 263 6.0 20.0 0.00 0.00 0.00 41 1009.3
20260503200704 55 275 3.0 8.0 0.00 0.00 0.00 43 1009.3
20260503200203 54 242 4.0 12.0 0.00 0.00 0.00 40 1009.5
20260503195704 54 228 2.0 15.0 0.00 0.00 0.00 43 1009.5
20260503195203 54 357 3.0 14.0 0.00 0.00 0.00 41 1009.6
20260503194704 55 301 6.0 12.0 0.00 0.00 0.00 40 1009.7
20260503194204 54 235 3.0 9.0 0.00 0.00 0.00 42 1009.8
20260503193204 53 277 6.0 13.0 0.00 0.00 0.00 41 1009.8
20260503192705 54 220 5.0 12.0 0.00 0.00 0.00 41 1009.9
20260503191704 53 260 3.0 8.0 0.00 0.00 0.00 45 1010.1
20260503191203 52 290 5.0 14.0 0.00 0.00 0.00 44 1009.9
20260503190204 51 289 4.0 10.0 0.00 0.00 0.00 45 1010.0
20260503185704 52 289 9.0 14.0 0.00 0.00 0.00 42 1010.1
20260503185204 52 326 5.0 12.0 0.00 0.00 0.00 43 1010.2
20260503184704 52 239 7.0 20.0 0.00 0.01 0.00 42 1010.1
20260503184204 52 225 5.0 13.0 0.00 0.01 0.00 42 1010.2
20260503182204 52 280 6.0 16.0 0.00 0.01 0.00 42 1010.2
20260503181705 52 313 6.0 13.0 0.00 0.01 0.00 42 1010.1
20260503181204 53 304 7.0 16.0 0.00 0.01 0.00 41 1010.1
20260503180704 52 301 4.0 12.0 0.00 0.01 0.00 45 1010.0
20260503180204 51 309 7.0 18.0 0.00 0.01 0.00 42 1010.2
20260503175704 52 280 6.0 14.0 0.00 0.01 0.00 44 1010.1
20260503175204 52 262 5.0 12.0 0.00 0.01 0.00 44 1010.0
20260503174704 52 254 3.0 8.0 0.00 0.01 0.00 44 1010.0
20260503174204 52 273 2.0 9.0 0.00 0.01 0.00 45 1010.0
20260503173203 51 305 5.0 10.0 0.00 0.01 0.00 45 1009.9
20260503172705 51 244 8.0 16.0 0.00 0.01 0.00 44 1010.0
20260503172204 51 326 3.0 18.0 0.00 0.01 0.00 44 1009.9
20260503171703 51 248 4.0 15.0 0.00 0.01 0.00 45 1009.9
20260503171204 50 289 5.0 16.0 0.00 0.01 0.00 43 1010.0
20260503170704 51 235 3.0 16.0 0.00 0.01 0.00 44 1010.1
20260503160204 48 256 2.0 7.0 0.00 0.01 0.00 53 1010.3
20260503150204 49 247 3.0 8.0 0.00 0.02 0.00 60 1010.5
20260503131205 46 312 3.0 10.0 0.00 0.03 0.00 66 1010.8
20260503130706 46 44 3.0 14.0 0.00 0.03 0.00 67 1010.8
20260503130205 45 341 4.0 13.0 0.00 0.03 0.00 68 1010.8
20260503120204 38 327 0.0 2.0 0.00 0.05 0.00 83 1010.7
20260503110705 34 328 0.0 0.0 0.00 0.05 0.00 85 1010.7
20260503110204 34 328 0.0 0.0 0.00 0.05 0.00 85 1010.6
20260503100205 32 328 0.0 0.0 0.00 0.06 0.00 85 1010.4
20260503090205 32 328 0.0 0.0 0.00 0.10 0.00 83 1010.5
20260503081204 35 328 0.0 0.0 0.00 0.13 0.00 80 1010.7
20260503080205 35 328 0.0 0.0 0.00 0.14 0.00 79 1010.8
20260503072704 36 328 0.0 0.0 0.00 0.17 0.00 77 1010.8
20260503072204 37 328 0.0 1.0 0.00 0.18 0.00 76 1010.8
20260503071705 37 328 0.0 2.0 0.00 0.19 0.00 75 1010.7
20260503070204 38 318 1.0 5.0 0.00 0.19 0.00 72 1010.8
20260503060204 41 290 1.0 3.0 0.00 0.23 0.00 67 1011.3
20260503054704 41 286 2.0 6.0 0.00 0.26 0.00 66 1011.4
20260503054204 42 293 2.0 12.0 0.00 0.26 0.00 65 1011.4
20260503053704 42 298 4.0 9.0 0.00 0.26 0.00 65 1011.5
20260503053203 42 324 2.0 9.0 0.00 0.26 0.00 65 1011.4
20260503052704 42 304 1.0 7.0 0.00 0.26 0.00 65 1011.5
20260503052204 42 275 4.0 9.0 0.00 0.26 0.00 64 1011.5
20260503051703 42 285 2.0 8.0 0.00 0.26 0.00 65 1011.6
20260503050704 42 247 1.0 6.0 0.00 0.26 0.00 66 1011.7
20260503050204 42 283 1.0 3.0 0.00 0.26 0.00 66 1011.8
20260503045704 42 301 1.0 2.0 0.00 0.26 0.00 66 1011.8
20260503044704 41 295 2.0 7.0 0.00 0.27 0.00 69 1011.9
20260503044203 40 267 1.0 5.0 0.00 0.27 0.00 71 1011.9
20260503043704 39 337 1.0 2.0 0.00 0.27 0.00 72 1011.9
20260503043204 39 333 0.0 2.0 0.00 0.27 0.00 72 1011.8
20260503042704 39 333 0.0 0.0 0.00 0.27 0.00 72 1012.0
20260503042204 39 333 0.0 1.0 0.00 0.27 0.00 71 1012.0
20260503041704 40 333 1.0 2.0 0.00 0.27 0.00 71 1012.1
20260503041204 40 334 0.0 1.0 0.00 0.28 0.00 69 1012.2
20260503040705 41 334 0.0 0.0 0.00 0.29 0.00 67 1012.2
20260503040204 41 334 0.0 1.0 0.00 0.30 0.00 66 1012.2
20260503035704 41 334 0.0 2.0 0.00 0.30 0.30 67 1012.1
20260503035204 41 334 1.0 3.0 0.00 0.30 0.30 66 1012.1
20260503033704 43 336 1.0 8.0 0.00 0.30 0.30 63 1012.1
20260503033204 43 285 1.0 5.0 0.00 0.30 0.30 61 1012.1
20260503032704 43 307 2.0 8.0 0.00 0.30 0.30 63 1012.2
20260503031704 43 325 2.0 5.0 0.00 0.30 0.30 63 1012.3
20260503031204 43 293 1.0 3.0 0.00 0.30 0.30 65 1012.3
20260503030704 43 320 1.0 3.0 0.00 0.30 0.30 64 1012.3
20260503030204 43 321 2.0 3.0 0.00 0.30 0.30 64 1012.4
20260503025204 44 315 1.0 2.0 0.00 0.30 0.30 63 1012.4
20260503024704 44 315 0.0 3.0 0.00 0.30 0.30 62 1012.4
20260503024204 44 334 1.0 3.0 0.00 0.30 0.30 62 1012.5
20260503023704 45 321 1.0 3.0 0.00 0.30 0.30 61 1012.4
20260503023204 45 318 2.0 3.0 0.00 0.30 0.30 61 1012.5
20260503022704 45 5 1.0 5.0 0.00 0.30 0.30 62 1012.5
20260503022204 44 316 1.0 5.0 0.00 0.30 0.30 62 1012.4
20260503021704 44 314 0.0 3.0 0.00 0.30 0.30 63 1012.5
20260503021204 45 315 0.0 1.0 0.00 0.30 0.30 63 1012.5
20260503020704 45 315 0.0 1.0 0.00 0.30 0.30 62 1012.5
20260503020204 45 315 1.0 3.0 0.00 0.30 0.30 61 1012.4
20260503015704 45 314 2.0 5.0 0.00 0.30 0.30 64 1012.5
20260503015204 45 303 0.0 2.0 0.00 0.30 0.30 64 1012.5
20260503014704 46 303 0.0 2.0 0.00 0.30 0.30 63 1012.5
20260503014204 46 303 0.0 2.0 0.00 0.30 0.30 60 1012.5
20260503013704 47 303 2.0 3.0 0.00 0.30 0.30 57 1012.5
20260503013204 47 303 2.0 3.0 0.00 0.30 0.30 56 1012.5
20260503012705 47 316 2.0 3.0 0.00 0.30 0.30 57 1012.5
20260503012204 47 317 1.0 5.0 0.00 0.30 0.30 57 1012.4
20260503011704 47 281 2.0 5.0 0.00 0.30 0.30 58 1012.4
20260503011204 46 284 1.0 2.0 0.00 0.30 0.30 59 1012.3
20260503010704 46 284 1.0 3.0 0.00 0.30 0.30 61 1012.2
20260503005704 46 298 1.0 3.0 0.00 0.30 0.30 60 1012.0
20260503005205 46 305 1.0 3.0 0.00 0.30 0.30 61 1011.9
20260503004204 46 291 2.0 5.0 0.00 0.30 0.30 62 1011.8
20260503003705 46 317 0.0 2.0 0.00 0.30 0.30 64 1011.7
20260503003204 47 317 0.0 2.0 0.00 0.30 0.30 59 1011.7
20260503002703 48 317 1.0 3.0 0.00 0.30 0.30 59 1011.7
20260503002203 48 319 2.0 5.0 0.00 0.30 0.30 56 1011.5
20260503001705 48 324 1.0 5.0 0.00 0.30 0.30 55 1011.5
20260503001204 48 269 2.0 6.0 0.00 0.30 0.30 54 1011.4
20260503000704 49 287 1.0 3.0 0.00 0.30 0.30 53 1011.4
20260503000204 49 291 2.0 7.0 0.00 0.30 0.30 52 1011.4
20260502235705 49 286 2.0 5.0 0.00 0.30 0.30 53 1011.3
20260502235204 49 299 1.0 3.0 0.00 0.30 0.30 53 1011.5
20260502234705 50 304 2.0 3.0 0.00 0.30 0.30 51 1011.4
20260502234204 50 308 3.0 9.0 0.00 0.30 0.30 50 1011.4
20260502233704 50 299 2.0 7.0 0.00 0.30 0.30 52 1011.4
20260502233204 50 279 2.0 5.0 0.00 0.30 0.30 52 1011.3
20260502232704 50 316 2.0 9.0 0.00 0.30 0.30 50 1011.3
20260502232204 50 287 3.0 9.0 0.00 0.30 0.30 50 1011.3
20260502231704 51 314 2.0 3.0 0.00 0.30 0.30 50 1011.3
20260502231204 51 315 3.0 9.0 0.00 0.30 0.30 49 1011.2
20260502230704 51 295 2.0 5.0 0.00 0.30 0.30 50 1011.2
20260502230204 51 317 3.0 8.0 0.00 0.30 0.30 50 1011.2
20260502225705 51 321 2.0 3.0 0.00 0.30 0.30 50 1011.2
20260502225204 51 320 3.0 6.0 0.00 0.30 0.30 50 1011.1
20260502224704 51 315 2.0 6.0 0.00 0.30 0.30 49 1011.1
20260502224204 52 274 2.0 7.0 0.00 0.30 0.30 49 1011.0
20260502223204 52 287 2.0 7.0 0.00 0.30 0.30 47 1010.9
20260502222704 52 314 3.0 7.0 0.00 0.30 0.30 47 1010.8
20260502222204 53 322 2.0 12.0 0.00 0.30 0.30 47 1010.8
20260502221705 54 303 6.0 12.0 0.00 0.30 0.30 45 1010.8
20260502221204 54 306 2.0 10.0 0.00 0.30 0.30 48 1010.7
20260502220704 54 313 1.0 8.0 0.00 0.30 0.30 46 1010.6
20260502220204 54 232 2.0 10.0 0.00 0.30 0.30 49 1010.6
20260502215204 53 299 3.0 7.0 0.00 0.30 0.30 49 1010.6
20260502214704 53 293 2.0 7.0 0.00 0.30 0.30 47 1010.5
20260502214204 53 325 3.0 14.0 0.00 0.30 0.30 47 1010.5
20260502213704 53 336 3.0 9.0 0.00 0.30 0.30 47 1010.5
20260502213204 53 326 2.0 10.0 0.00 0.30 0.30 45 1010.3
20260502212705 54 241 3.0 9.0 0.00 0.30 0.30 46 1010.3
20260502212203 54 326 5.0 13.0 0.00 0.30 0.30 47 1010.2
20260502211704 54 295 2.0 8.0 0.00 0.30 0.30 48 1010.2
20260502210703 54 301 3.0 10.0 0.00 0.30 0.30 47 1010.1